Date String (YYYY-MM-DD hh:mm:ss) UTC,Instrument flags,Ambient pressure (hPa),Sample flow (lpm),Bypass flow (lpm),Sample temperature (°C),Ambient temperature (°C),ASC tube jacket temperature (°C),LED temperature (°C),Box temperature (°C),Sample RH (%),Span deviation,Mass concentration (μg/m³),Mass concentration (μg/m³),Mass concentration (μg/m³)
DateTimeUTC,F1_M11,P_M11,Q1_M11,Q2_M11,T1_M11,T2_M11,T3_M11,T4_M11,T5_M11,U1_M11,ZSPAN_M11,X0_M11,X2_M11,X1_M11
2022-06-13 22:00:00,,0812.9,4.99,0.00,28.8,27.4,00.0,37.5,30.7,10.5,0003.7,0050.58,0033.76,0032.21
2022-06-13 22:01:00,,0812.9,4.99,0.00,28.8,27.6,00.0,37.5,30.9,10.1,0003.9,0049.71,0033.72,0032.22
2022-06-13 22:02:00,,0812.9,4.99,0.00,28.9,27.8,00.0,37.6,30.9,10.4,0003.9,0048.13,0033.60,0032.13
2022-06-13 22:03:00,,0812.9,4.99,0.00,28.9,27.6,00.0,37.5,30.9,10.3,0003.4,0047.48,0033.51,0032.05
2022-06-13 22:04:00,,0812.9,5.01,0.00,28.8,27.0,00.0,37.5,30.7,10.5,0003.7,0046.46,0033.44,0031.97
2022-06-13 22:05:00,,0812.9,5.00,0.00,28.8,26.9,00.0,37.5,30.6,10.4,0004.1,0046.24,0033.34,0031.88
2022-06-13 22:06:00,,0812.8,4.99,0.00,28.8,27.0,00.0,37.5,30.7,10.1,0004.1,0045.83,0033.23,0031.78
2022-06-13 22:07:00,,0812.8,5.00,0.00,28.8,27.2,00.0,37.5,30.7,09.9,0003.6,0045.19,0033.16,0031.72
2022-06-13 22:08:00,,0812.8,5.00,0.00,28.8,27.4,00.0,37.5,30.8,10.1,0003.5,0045.71,0033.11,0031.68
2022-06-13 22:09:00,,0812.8,5.00,0.00,28.8,27.6,00.0,37.6,30.9,10.3,0003.6,0045.78,0033.12,0031.65
2022-06-13 22:10:00,,0812.7,4.99,0.00,28.9,27.8,00.0,37.6,30.9,10.5,0004.1,0044.56,0033.03,0031.54
2022-06-13 22:11:00,,0812.8,4.99,0.00,28.9,27.6,00.0,37.6,30.9,11.0,0003.5,0043.13,0032.87,0031.38
2022-06-13 22:12:00,,0812.8,5.02,0.00,28.8,26.9,00.0,37.5,30.6,11.5,0003.6,0042.33,0032.70,0031.23
2022-06-13 22:13:00,,0812.8,4.99,0.00,28.8,26.8,00.0,37.5,30.6,11.9,0003.7,0042.18,0032.57,0031.08
2022-06-13 22:14:00,,0812.7,4.99,0.00,28.8,26.9,00.0,37.5,30.6,12.0,0004.1,0041.82,0032.37,0030.88
2022-06-13 22:15:00,,0812.7,5.00,0.00,28.8,27.1,00.0,37.5,30.7,12.5,0004.7,0041.30,0032.06,0030.64
2022-06-13 22:16:00,,0812.7,5.00,0.00,28.8,27.3,00.0,37.6,30.7,13.0,0004.5,0040.32,0031.81,0030.42
2022-06-13 22:17:00,,0812.6,5.00,0.00,28.8,27.6,00.0,37.6,30.8,13.0,0004.7,0039.95,0031.59,0030.19
2022-06-13 22:18:00,,0812.7,4.99,0.00,28.9,27.8,00.0,37.6,30.9,13.1,0004.8,0038.92,0031.35,0029.95
2022-06-13 22:19:00,,0812.7,4.99,0.00,28.9,27.6,00.0,37.6,30.9,12.9,0005.0,0037.43,0031.10,0029.72
2022-06-13 22:20:00,,0812.7,5.00,0.00,28.9,27.0,00.0,37.6,30.6,12.7,0004.1,0036.85,0030.82,0029.50
2022-06-13 22:21:00,,0812.7,5.01,0.00,28.8,26.9,00.0,37.5,30.6,12.8,0004.3,0036.59,0030.63,0029.32
2022-06-13 22:22:00,,0812.7,4.99,0.00,28.8,27.0,00.0,37.5,30.7,13.1,0004.6,0036.38,0030.46,0029.20
2022-06-13 22:23:00,,0812.7,5.00,0.00,28.8,27.2,00.0,37.6,30.7,13.3,0004.5,0036.41,0030.34,0029.07
2022-06-13 22:24:00,,0812.7,5.01,0.00,28.8,27.4,00.0,37.6,30.8,13.3,0004.8,0036.35,0030.22,0028.99
2022-06-13 22:25:00,,0812.6,5.00,0.00,28.9,27.6,00.0,37.6,30.9,13.5,0005.0,0036.01,0030.17,0028.97
2022-06-13 22:26:00,,0812.7,5.00,0.00,28.9,27.8,00.0,37.6,31.0,13.4,0004.6,0035.74,0030.17,0028.94
2022-06-13 22:27:00,,0812.7,5.00,0.00,29.0,27.9,00.0,37.6,31.0,13.6,0004.0,0036.27,0030.15,0028.90
2022-06-13 22:28:00,,0812.7,4.99,0.00,28.9,27.4,00.0,37.6,30.8,13.6,0003.6,0036.28,0030.11,0028.89
2022-06-13 22:29:00,,0812.7,5.02,0.00,28.9,27.0,00.0,37.6,30.7,13.5,0003.7,0037.51,0030.09,0028.90
2022-06-13 22:30:00,,0812.7,4.99,0.00,28.9,27.0,00.0,37.6,30.7,13.7,0004.3,0038.00,0030.15,0028.90
2022-06-13 22:31:00,,0812.7,5.00,0.00,28.8,27.1,00.0,37.6,30.7,13.7,0005.2,0038.31,0030.14,0028.90
2022-06-13 22:32:00,,0812.7,5.01,0.00,28.8,27.3,00.0,37.6,30.8,13.6,0005.2,0038.21,0030.10,0028.88
2022-06-13 22:33:00,,0812.6,4.99,0.00,28.9,27.5,00.0,37.6,30.9,13.5,0005.0,0038.29,0030.11,0028.89
2022-06-13 22:34:00,,0812.6,5.01,0.00,28.9,27.7,00.0,37.6,30.9,13.4,0005.3,0039.33,0030.12,0028.93
2022-06-13 22:35:00,,0812.6,4.99,0.00,28.9,27.5,00.0,37.6,30.9,13.5,0005.6,0040.73,0030.20,0028.97
2022-06-13 22:36:00,,0812.6,5.00,0.00,28.9,26.9,00.0,37.6,30.7,13.3,0005.9,0040.59,0030.19,0028.97
2022-06-13 22:37:00,,0812.6,4.98,0.00,28.8,26.8,00.0,37.6,30.6,13.4,0005.3,0040.84,0030.14,0028.99
2022-06-13 22:38:00,,0812.6,5.00,0.00,28.8,26.9,00.0,37.6,30.6,13.3,0004.4,0040.96,0030.18,0028.99
2022-06-13 22:39:00,,0812.6,5.01,0.00,28.8,27.1,00.0,37.6,30.7,13.2,0004.6,0040.75,0030.21,0028.99
2022-06-13 22:40:00,,0812.6,4.99,0.00,28.8,27.3,00.0,37.6,30.8,13.2,0004.6,0039.54,0030.23,0028.97
2022-06-13 22:41:00,,0812.6,5.00,0.00,28.9,27.5,00.0,37.6,30.9,13.2,0004.0,0039.12,0030.18,0028.95
2022-06-13 22:42:00,,0812.5,5.00,0.00,28.9,27.8,00.0,37.6,31.0,13.1,0003.3,0038.91,0030.21,0028.95
2022-06-13 22:43:00,,0812.5,5.00,0.00,29.0,27.9,00.0,37.6,31.0,13.2,0003.4,0039.26,0030.25,0028.95
2022-06-13 22:44:00,,0812.5,5.00,0.00,28.9,27.4,00.0,37.6,30.8,13.2,0003.3,0039.27,0030.30,0028.96
2022-06-13 22:45:00,,0812.5,5.00,0.00,28.9,26.9,00.0,37.6,30.7,13.1,0003.0,0038.26,0030.30,0028.97
2022-06-13 22:46:00,,0812.5,5.00,0.00,28.9,27.0,00.0,37.6,30.7,13.2,0003.1,0036.76,0030.28,0028.97
2022-06-13 22:47:00,,0812.5,5.01,0.00,28.8,27.1,00.0,37.6,30.7,13.2,0002.5,0036.88,0030.27,0028.96
2022-06-13 22:48:00,,0812.5,5.00,0.00,28.8,27.3,00.0,37.6,30.8,13.2,0002.4,0036.61,0030.31,0028.98
2022-06-13 22:49:00,,0812.6,5.00,0.00,28.9,27.5,00.0,37.6,30.9,13.2,0002.8,0036.39,0030.33,0029.03
2022-06-13 22:50:00,,0812.6,4.99,0.00,28.9,27.7,00.0,37.6,31.0,13.3,0002.7,0037.23,0030.33,0029.05
2022-06-13 22:51:00,,0812.6,5.01,0.00,29.0,27.8,00.0,37.7,31.0,13.2,0002.8,0037.11,0030.30,0029.08
2022-06-13 22:52:00,,0812.5,5.00,0.00,29.0,27.3,00.0,37.6,30.8,13.1,0002.7,0037.09,0030.32,0029.12
2022-06-13 22:53:00,,0812.5,5.01,0.00,28.9,27.0,00.0,37.6,30.7,13.1,0003.1,0037.14,0030.29,0029.12
2022-06-13 22:54:00,,0812.5,4.99,0.00,28.9,27.0,00.0,37.6,30.7,13.1,0003.4,0037.04,0030.28,0029.13
2022-06-13 22:55:00,,0812.4,4.99,0.00,28.9,27.1,00.0,37.6,30.7,13.0,0003.3,0037.11,0030.22,0029.11
2022-06-13 22:56:00,,0812.5,5.01,0.00,28.9,27.3,00.0,37.6,30.8,13.0,0003.5,0037.49,0030.21,0029.07
2022-06-13 22:57:00,,0812.5,5.00,0.00,28.9,27.5,00.0,37.6,30.9,13.1,0003.4,0037.93,0030.13,0029.01
2022-06-13 22:58:00,,0812.5,5.00,0.00,28.9,27.7,00.0,37.7,31.0,13.1,0003.6,0038.66,0030.14,0029.00
2022-06-13 22:59:00,,0812.5,5.00,0.00,29.0,27.8,00.0,37.7,31.0,13.2,0004.0,0038.67,0030.17,0028.99
